Weather History for Lee's Summit, MO

Change the Weather History Date:

Tuesday, May 21, 2013

  Actual Average (KMKC) Record (KMKC)
Temperature  
Mean Temperature 65 °F -  
Max Temperature 73 °F 75 °F 88 °F (2014)
Min Temperature 57 °F 55 °F 45 °F (2002)
Growing Degree Days 15 (Base 50)    
Moisture  
Dew Point 52 °F    
Average Humidity 62    
Maximum Humidity 87    
Minimum Humidity 46    
Precipitation  
Precipitation 0.00 in - - ()
Sea Level Pressure  
Sea Level Pressure 29.73 in    
Wind  
Wind Speed 8 mph (WSW)    
Max Wind Speed 14 mph    
Max Gust Speed 23 mph    
Visibility 10 miles    
Events      
Averages and records for this station are not official NWS values.
T = Trace of Precipitation, MM = Missing Value Source: NWS Daily Summary

Daily Weather History Graph

Daily Weather History Graph

Search for Another Location

Airport:

Trip Planner

Search our weather history database for the weather conditions in past years. The results will help you decide how hot, cold, wet, or windy it might be!

Date:

Astronomy

May. 21, 2013 Rise Set
Actual Time 5:59 AM CDT 8:28 PM CDT
Civil Twilight 5:29 AM CDT 8:59 PM CDT
Nautical Twilight 4:51 AM CDT 9:37 PM CDT
Astronomical Twilight 4:09 AM CDT 10:19 PM CDT
Moon 4:45 PM CDT (5/21) 3:26 AM CDT (5/21)
Length of Visible Light 15h 30m
Length of Day
14h 29m
Waxing Gibbous, 84% of the Moon is Illuminated
May 21
Waxing Gibbous
May 24
Full
May 31
Last Quarter
Jun 8
New
Jun 16
First Quarter

Hourly Weather History & Observations

Time (CDT) Temp. Dew Point Humidity Pressure Visibility Wind Dir Wind Speed Gust Speed Precip Events Conditions
12:53 AM 64.9 °F 61.0 °F 87% 29.68 in 10.0 mi SW 9.2 mph - N/A   Clear
1:53 AM 64.9 °F 59.0 °F 81% 29.69 in 10.0 mi WSW 10.4 mph - N/A   Clear
2:53 AM 63.0 °F 55.0 °F 75% 29.69 in 10.0 mi WSW 8.1 mph - N/A   Clear
3:53 AM 62.1 °F 51.1 °F 67% 29.71 in 10.0 mi WSW 8.1 mph - N/A   Clear
4:53 AM 60.1 °F 50.0 °F 69% 29.73 in 10.0 mi WSW 6.9 mph - N/A   Clear
5:53 AM 57.0 °F 48.9 °F 74% 29.73 in 10.0 mi WSW 4.6 mph - N/A   Clear
6:53 AM 57.0 °F 50.0 °F 77% 29.76 in 10.0 mi SW 5.8 mph - N/A   Clear
7:53 AM 60.1 °F 51.1 °F 72% 29.77 in 10.0 mi West 6.9 mph - N/A   Clear
8:53 AM 63.0 °F 52.0 °F 67% 29.77 in 10.0 mi Variable 5.8 mph - N/A   Clear
9:53 AM 66.0 °F 53.1 °F 63% 29.77 in 10.0 mi WSW 6.9 mph - N/A   Clear
10:53 AM 66.9 °F 53.1 °F 61% 29.77 in 10.0 mi SSW 9.2 mph - N/A   Clear
11:53 AM 68.0 °F 54.0 °F 61% 29.77 in 10.0 mi SSW 10.4 mph 16.1 mph N/A   Clear
12:53 PM 69.1 °F 52.0 °F 54% 29.74 in 10.0 mi SW 12.7 mph 18.4 mph N/A   Clear
1:53 PM 71.1 °F 53.1 °F 53% 29.74 in 10.0 mi WSW 10.4 mph - N/A   Clear
2:53 PM 72.0 °F 54.0 °F 53% 29.74 in 10.0 mi SW 10.4 mph - N/A   Clear
3:53 PM 73.9 °F 53.1 °F 48% 29.72 in 10.0 mi WSW 13.8 mph 20.7 mph N/A   Partly Cloudy
4:53 PM 72.0 °F 52.0 °F 49% 29.71 in 10.0 mi WSW 13.8 mph 23.0 mph N/A   Partly Cloudy
5:53 PM 72.0 °F 50.0 °F 46% 29.69 in 10.0 mi WSW 8.1 mph - N/A   Partly Cloudy
6:53 PM 70.0 °F 51.1 °F 51% 29.69 in 10.0 mi West 8.1 mph - N/A   Clear
7:53 PM 68.0 °F 50.0 °F 52% 29.69 in 10.0 mi WNW 5.8 mph - N/A   Scattered Clouds
8:53 PM 64.9 °F 48.0 °F 54% 29.70 in 10.0 mi WNW 4.6 mph - N/A   Clear
9:53 PM 64.0 °F 48.0 °F 56% 29.71 in 10.0 mi Calm Calm - N/A   Clear
10:53 PM 61.0 °F 48.0 °F 62% 29.74 in 10.0 mi WSW 3.5 mph - N/A   Clear
11:53 PM 62.1 °F 48.9 °F 62% 29.73 in 10.0 mi SSW 3.5 mph - N/A   Mostly Cloudy